[[{"header":{"parameterUnit":"m.s-1","parameterCategory":1,"la1":30.2991,"la2":30.254,"lo1":-89.0895,"lo2":-89.0444,"dy":0.0017,"dx":0.0017,"nx":28,"ny":28,"refTime":"2025-08-21T09:00:00:Z","depth":0,"parameterNumber":2,"parameterNumberName":"U-component_of_WINDS"},"data":[0,0,0,0,0,0,0,0,0,0,0,0,0,0,0,0,0,0,0,0,0,0,0,0,0,0,0,0,0,0,0,0,0,0,0,0,0,0,0,0,0,0,0,0,0,0,0,0,0,0,0,0,0,0,0,0,0,0,-0.9694,-0.9693,0,-0.9624,-0.9623,-0.9623,-0.9569,-0.9568,-0.9568,-0.9567,-0.9492,-0.9491,-0.9489,0,0,0,0,0,0,0,0,0,0,0,0,0,-0.9777,-0.9776,-0.9694,-0.9693,-0.9692,-0.9624,-0.9623,-0.9622,-0.9569,-0.9568,-0.9568,-0.9567,-0.9493,-0.9491,-0.9489,0,0,0,0,0,0,0,0,0,0,0,0,0,-0.9727,-0.9775,-0.9694,-0.9658,-0.9654,-0.9625,-0.9623,-0.9622,-0.9569,-0.9568,-0.9568,-0.9567,-0.9493,-0.9491,-0.9489,-0.9489,0,0,-0.9482,-0.9481,0,0,0,0,0,0,0,0,-0.973,-0.9724,-0.9664,-0.966,-0.9656,-0.9605,-0.9625,-0.9578,-0.9569,-0.9601,-0.9567,-0.9566,-0.953,-0.9524,-0.9513,-0.9486,-0.9483,-0.9481,-0.948,-0.9479,-0.9478,0,0,0,0,0,0,0,-0.9734,-0.9727,-0.9666,-0.9663,-0.9658,-0.9643,-0.9635,-0.9616,-0.957,-0.9598,-0.9594,-0.9587,-0.9527,-0.9515,-0.9511,-0.9482,-0.9481,-0.9479,-0.9478,-0.9477,-0.9449,-0.945,0,0,0,0,0,0,-0.9743,-0.973,-0.9669,-0.9664,-0.9692,-0.9642,-0.9633,-0.9622,-0.957,-0.9562,-0.9588,-0.9585,-0.952,-0.9514,-0.9508,-0.9504,-0.9479,-0.9477,-0.9476,-0.9449,-0.9449,-0.945,0,0,0,0,0,0,-0.9745,-0.9738,-0.9671,-0.9696,-0.9686,-0.9642,-0.9629,-0.9621,-0.9608,-0.9562,-0.9554,-0.9584,-0.9519,-0.9511,-0.9494,-0.95,-0.9476,-0.9474,-0.9448,-0.9449,-0.945,-0.9497,0,0,0,0,0,0,-0.9748,-0.9739,-0.974,-0.9697,-0.9685,-0.966,-0.9629,-0.962,-0.9605,-0.9601,-0.9557,-0.9548,-0.9518,-0.9498,-0.9492,-0.9497,-0.9472,-0.9447,-0.9448,-0.9449,-0.9494,-0.9499,-0.9503,0,0,0,0,0,-0.9751,-0.9756,-0.9741,-0.9734,-0.9686,-0.9661,-0.9654,-0.962,-0.9606,-0.9605,-0.9576,-0.955,-0.9501,-0.9497,-0.9489,-0.9494,-0.9446,-0.9448,-0.9449,-0.9492,-0.9498,-0.9503,0,0,0,0,0,0,-0.9801,-0.975,-0.9732,-0.9723,-0.9697,-0.9652,-0.965,-0.9627,-0.9603,-0.96,-0.9557,-0.9547,-0.9535,-0.9512,-0.9508,-0.9491,-0.947,-0.947,-0.9506,-0.9511,-0.9515,-0.952,-0.947,0,0,0,0,0,-0.9811,-0.9796,-0.9752,-0.9748,-0.9736,-0.9696,-0.9684,-0.9659,-0.963,-0.9618,-0.9587,-0.9558,-0.9536,-0.9522,-0.95,-0.9491,-0.948,-0.9491,-0.9495,-0.9499,-0.9499,-0.9491,-0.9495,-0.9455,-0.9455,-0.9455,0,0,-0.9831,-0.9801,-0.9794,-0.9757,-0.9734,-0.9718,-0.9687,-0.9672,-0.9659,-0.9615,-0.9597,-0.9573,-0.9538,-0.9525,-0.9518,-0.9506,-0.9508,-0.9501,-0.9504,-0.9502,-0.9493,-0.9497,-0.95,-0.9456,-0.9456,-0.9455,0,0,-0.986,-0.9837,-0.983,-0.9808,-0.9773,-0.9746,-0.9745,-0.9703,-0.9686,-0.9668,-0.9634,-0.9617,-0.9581,-0.9557,-0.954,-0.9558,-0.9533,-0.9552,-0.9575,-0.9568,-0.9571,-0.9573,-0.9578,-0.9581,-0.9553,-0.9553,-0.9553,0,-0.9889,-0.9865,-0.983,-0.9816,-0.98,-0.9761,-0.9753,-0.9733,-0.9692,-0.9681,-0.9669,-0.9621,-0.9595,-0.9575,-0.958,-0.9568,-0.9563,-0.9556,-0.9573,-0.9576,-0.9577,-0.9581,-0.9584,-0.9555,-0.9555,-0.9555,-0.9554,0,-0.9901,-0.9885,-0.9884,-0.9847,-0.9831,-0.982,-0.9782,-0.9769,-0.9746,-0.972,-0.9701,-0.9668,-0.9637,-0.9631,-0.9608,-0.9607,-0.96,-0.9582,-0.956,-0.9584,-0.9587,-0.9589,-0.9559,-0.9558,-0.9557,-0.9557,0,0,-0.9959,-0.9902,-0.9902,-0.9884,-0.9843,-0.9829,-0.9816,-0.9787,-0.9776,-0.9749,-0.9736,-0.9706,-0.9688,-0.9668,-0.9642,-0.9636,-0.9651,-0.9618,-0.9616,-0.9623,-0.9645,-0.9659,-0.9661,-0.9634,-0.9634,-0.9635,-0.9648,0,-0.998,-0.9956,-0.9923,-0.9909,-0.9893,-0.9855,-0.9843,-0.9816,-0.9791,-0.9772,-0.9744,-0.9723,-0.9701,-0.9689,-0.9682,-0.9651,-0.9654,-0.965,-0.9619,-0.9619,-0.9628,-0.9663,-0.9677,-0.9691,-0.9649,-0.9649,-0.9649,0,-1.0001,-0.9977,-0.9961,-0.992,-0.9912,-0.9903,-0.9872,-0.9856,-0.9823,-0.9805,-0.9784,-0.9756,-0.9738,-0.972,-0.9694,-0.9691,-0.9677,-0.966,-0.9659,-0.9654,-0.9635,-0.9657,-0.9695,-0.9697,-0.9651,-0.9651,-0.9651,0,-1.0042,-1.0006,-0.9991,-0.9977,-0.993,-0.9923,-0.9903,-0.987,-0.9854,-0.9827,-0.9816,-0.9788,-0.9772,-0.9749,-0.9714,-0.9704,-0.9691,-0.967,-0.9674,-0.9674,-0.9671,-0.9672,-0.9706,-0.9665,-0.9665,-0.9665,-0.9665,0,-1.0068,-1.0059,-1.0009,-1.0,-0.9989,-0.9951,-0.9941,-0.9917,-0.9888,-0.9872,-0.9838,-0.9823,-0.9778,-0.9758,-0.973,-0.9711,-0.9705,-0.9688,-0.968,-0.969,-0.9692,-0.9679,-0.9677,-0.9666,-0.9665,-0.9665,-0.9665,0,-1.0111,-1.0078,-1.006,-1.0016,-1.0005,-0.9998,-0.996,-0.9949,-0.9923,-0.9903,-0.9896,-0.9854,-0.9828,-0.9791,-0.9753,-0.9734,-0.972,-0.9708,-0.9731,-0.9726,-0.9731,-0.9731,-0.9757,-0.9758,-0.9718,-0.9719,-0.9719,0,-1.0129,-1.0122,-1.0078,-1.0066,-1.0047,-1.0027,-1.0011,-0.9973,-0.9957,-0.9919,-0.9912,-0.9884,-0.986,-0.982,-0.9785,-0.9756,-0.9742,-0.9754,-0.9738,-0.9747,-0.974,-0.9741,-0.9739,-0.9757,-0.9758,-0.9758,-0.9759,0,-1.0164,-1.0148,-1.0127,-1.0099,-1.0081,-1.0057,-1.0032,-1.0023,-0.9979,-0.9963,-0.9937,-0.9918,-0.988,-0.9852,-0.9818,-0.9795,-0.9769,-0.9764,-0.9763,-0.9772,-0.9785,-0.9777,-0.974,-0.9763,-0.9763,-0.9763,-0.9762,-0.9762,-1.0194,-1.0186,-1.0153,-1.013,-1.0107,-1.0084,-1.0071,-1.0043,-1.0021,-0.9988,-0.9966,-0.9941,-0.9907,-0.9859,-0.9837,-0.9815,-0.9804,-0.9803,-0.9803,-0.9803,-0.9806,-0.979,-0.9809,-0.9809,-0.9809,-0.9809,-0.9808,0,-1.0226,-1.0203,-1.0182,-1.0148,-1.0129,-1.0108,-1.0079,-1.0064,-1.0042,-1.0014,-0.999,-0.9959,-0.9932,-0.9894,-0.9863,-0.9853,-0.984,-0.9846,-0.9846,-0.984,-0.9818,-0.9821,-0.9857,-0.9857,-0.9857,-0.9857,-0.9857,-0.9857,-1.024,-1.0224,-1.0203,-1.0175,-1.0151,-1.0127,-1.0112,-1.0089,-1.0066,-1.0034,-1.0011,-0.9987,-0.9954,-0.992,-0.9893,-0.9883,-0.9872,-0.9882,-0.9867,-0.9847,-0.9842,-0.9838,-0.9841,-0.988,-0.988,-0.9891,-0.9891,-0.9891]},{"header":{"parameterUnit":"m.s-1","parameterCategory":1,"la1":30.2991,"la2":30.254,"lo1":-89.0895,"lo2":-89.0444,"dy":0.0017,"dx":0.0017,"nx":28,"ny":28,"refTime":"2025-08-21T09:00:00:Z","depth":0,"parameterNumber":3,"parameterNumberName":"V-component_of_WINDS"},"data":[0,0,0,0,0,0,0,0,0,0,0,0,0,0,0,0,0,0,0,0,0,0,0,0,0,0,0,0,0,0,0,0,0,0,0,0,0,0,0,0,0,0,0,0,0,0,0,0,0,0,0,0,0,0,0,0,0,0,0.8926,0.8924,0,0.8788,0.8786,0.8785,0.8725,0.8725,0.8725,0.8725,0.8584,0.858,0.8576,0,0,0,0,0,0,0,0,0,0,0,0,0,0.9139,0.9135,0.8926,0.8924,0.8923,0.8788,0.8786,0.8784,0.8725,0.8725,0.8725,0.8725,0.8585,0.858,0.8575,0,0,0,0,0,0,0,0,0,0,0,0,0,0.9028,0.9134,0.8926,0.8877,0.8871,0.8788,0.8786,0.8784,0.8725,0.8725,0.8725,0.8726,0.8586,0.8581,0.8575,0.8531,0,0,0.8557,0.8554,0,0,0,0,0,0,0,0,0.9035,0.9021,0.8886,0.888,0.8873,0.8774,0.8809,0.8699,0.8725,0.878,0.8725,0.8726,0.8647,0.8636,0.8609,0.8525,0.8519,0.8556,0.8552,0.855,0.8548,0,0,0,0,0,0,0,0.9042,0.9026,0.8871,0.8884,0.8876,0.8861,0.8846,0.8788,0.8713,0.8775,0.8771,0.8755,0.8643,0.8615,0.8605,0.8517,0.8556,0.8551,0.8547,0.8545,0.839,0.839,0,0,0,0,0,0,0.9058,0.9033,0.8876,0.8867,0.8956,0.8857,0.884,0.8805,0.8714,0.87,0.8755,0.8753,0.8625,0.8612,0.86,0.8543,0.855,0.8544,0.8541,0.8391,0.839,0.839,0,0,0,0,0,0,0.9063,0.9045,0.8881,0.8949,0.8927,0.8853,0.8815,0.8802,0.8774,0.8698,0.8685,0.874,0.8625,0.8608,0.8549,0.8538,0.8542,0.8536,0.8392,0.8391,0.839,0.843,0,0,0,0,0,0,0.9069,0.9047,0.9029,0.8949,0.8923,0.8832,0.8814,0.88,0.8764,0.876,0.868,0.8668,0.8624,0.8558,0.8543,0.853,0.8532,0.8392,0.8391,0.839,0.8429,0.8431,0.8432,0,0,0,0,0,0.9077,0.9046,0.9029,0.901,0.89,0.8832,0.8817,0.8768,0.8763,0.8745,0.8697,0.867,0.8542,0.8553,0.8535,0.852,0.8393,0.8392,0.839,0.8429,0.843,0.8432,0,0,0,0,0,0,0.9127,0.9034,0.9014,0.8956,0.8902,0.8822,0.8797,0.8771,0.8717,0.8716,0.8656,0.8639,0.8585,0.8546,0.856,0.8473,0.8465,0.846,0.85,0.8501,0.8502,0.8512,0.8527,0,0,0,0,0,0.9131,0.9083,0.9005,0.8961,0.8935,0.8871,0.884,0.8806,0.8748,0.8725,0.8672,0.8617,0.8564,0.8531,0.8478,0.8424,0.8406,0.8404,0.8406,0.8407,0.8404,0.8373,0.8371,0.8386,0.8386,0.8386,0,0,0.9139,0.9083,0.9056,0.897,0.8924,0.8876,0.8853,0.8803,0.8767,0.8717,0.8658,0.8618,0.8552,0.8496,0.8468,0.8462,0.8396,0.8406,0.8407,0.8403,0.8371,0.837,0.8369,0.8385,0.8385,0.8385,0,0,0.9129,0.9082,0.904,0.8995,0.8926,0.8884,0.8875,0.8798,0.877,0.8709,0.8672,0.8628,0.8538,0.8493,0.8459,0.8433,0.8407,0.8418,0.8424,0.8395,0.8393,0.8392,0.8383,0.8381,0.8415,0.8415,0.8415,0,0.9147,0.9074,0.9022,0.8974,0.8938,0.8892,0.8849,0.8808,0.8726,0.8702,0.8696,0.8583,0.8536,0.8468,0.8462,0.8436,0.8423,0.8426,0.8398,0.8396,0.8394,0.8385,0.8381,0.8417,0.8416,0.8416,0.8416,0,0.91,0.905,0.9024,0.8946,0.8907,0.8862,0.8804,0.8771,0.8741,0.87,0.864,0.8581,0.8516,0.8498,0.8468,0.8426,0.8424,0.8409,0.84,0.8395,0.8385,0.8382,0.8419,0.8418,0.8418,0.8417,0,0,0.9116,0.9011,0.9003,0.8967,0.8889,0.8849,0.8803,0.8739,0.8712,0.8657,0.8617,0.8543,0.8528,0.8489,0.8454,0.8429,0.8413,0.8416,0.8414,0.8417,0.8363,0.8375,0.8371,0.8395,0.8394,0.8393,0.8368,0,0.9095,0.901,0.8963,0.8897,0.885,0.8807,0.8766,0.8714,0.8675,0.8629,0.8586,0.8534,0.8519,0.8495,0.8468,0.842,0.8401,0.8422,0.8357,0.8355,0.8374,0.8366,0.8378,0.8358,0.8364,0.8364,0.8363,0,0.9059,0.9006,0.8936,0.8864,0.8842,0.8807,0.8745,0.8703,0.8643,0.8616,0.8573,0.8539,0.8489,0.8484,0.8414,0.8429,0.84,0.8373,0.8371,0.8363,0.8359,0.8358,0.835,0.8347,0.8357,0.8357,0.8358,0,0.9079,0.8989,0.8936,0.8907,0.8821,0.8797,0.8761,0.8701,0.8666,0.8613,0.859,0.8531,0.8499,0.8455,0.8405,0.8406,0.8341,0.8332,0.8317,0.8318,0.8304,0.8306,0.8292,0.8287,0.8287,0.8287,0.8287,0,0.906,0.9019,0.8943,0.891,0.8863,0.881,0.8765,0.8724,0.8672,0.8631,0.859,0.8552,0.849,0.8445,0.8406,0.8354,0.834,0.8317,0.8307,0.832,0.8323,0.83,0.83,0.8286,0.8286,0.8286,0.8286,0,0.9073,0.902,0.8959,0.8884,0.8864,0.8833,0.8768,0.8734,0.8693,0.8642,0.8627,0.8562,0.8507,0.8454,0.838,0.8354,0.8302,0.8289,0.8322,0.8317,0.8305,0.8307,0.8275,0.8268,0.8269,0.8269,0.8269,0,0.9064,0.9032,0.8953,0.8922,0.8887,0.8838,0.8803,0.8749,0.8714,0.8644,0.8619,0.8561,0.8511,0.8425,0.8372,0.8315,0.83,0.8293,0.8291,0.8306,0.83,0.8302,0.8299,0.8294,0.8295,0.8295,0.8295,0,0.9055,0.9031,0.8981,0.8922,0.8881,0.8833,0.8782,0.876,0.8697,0.866,0.8603,0.8564,0.8489,0.8432,0.8369,0.8331,0.8303,0.8296,0.829,0.8302,0.8323,0.8312,0.8325,0.8297,0.8297,0.8296,0.8296,0.8296,0.9056,0.9026,0.8965,0.8912,0.8869,0.8823,0.8788,0.8743,0.8695,0.8629,0.8601,0.8543,0.8485,0.8398,0.8361,0.8316,0.8309,0.8299,0.8297,0.8295,0.8298,0.8331,0.8304,0.8304,0.8304,0.8304,0.8304,0,0.9045,0.9004,0.8955,0.8887,0.8845,0.8822,0.8766,0.8732,0.8682,0.863,0.8583,0.8518,0.8462,0.8405,0.8346,0.8321,0.8306,0.8307,0.8308,0.83,0.8308,0.8319,0.832,0.832,0.832,0.832,0.832,0.832,0.9034,0.898,0.8949,0.8875,0.8834,0.8778,0.8748,0.8706,0.8664,0.8594,0.8547,0.8511,0.8457,0.8394,0.8342,0.8327,0.8307,0.8312,0.8293,0.8301,0.83,0.8299,0.8309,0.8308,0.8308,0.8289,0.8289,0.8289]}]]